Regional Weather Roundup
Issued by NWS State College, PA

Home | Current Version | Previous Version | Graphics & Text | Print | Product List | Glossary Off
Versions: 1 2 3 4 5 6 7 8 9 10 11 12 13 14 15 16 17 18 19 20 21 22 23 24 25 26 27 28 29 30 31 32 33 34 35 36 37 38 39 40 41 42 43 44 45 46 47 48 49 50

000
ASUS41 KCTP 261810
RWRCTP

REGIONAL WEATHER ROUNDUP
NATIONAL WEATHER SERVICE STATE COLLEGE PA
100 PM EST THU FEB 26 2015

Note: "fair" indicates few or no clouds below 12,000 feet with no
significant weather and/or obstructions to visibility.

* = STATION THAT DOES NOT REPORT PRECIPITATION /E.G. RAIN...SNOW...ETC/
    THUNDER OR FOG.

PAZ002>004-007>009-013>016-020>023-029>032-261900-
WESTERN PENNSYLVANIA

CITY           SKY/WX    TMP DP  RH WIND       PRES   REMARKS
ERIE           LGT SNOW  13   6  74 N14       30.07S WCI  -2
MEADVILLE      LGT SNOW  14   6  70 N9        29.96S WCI   2
FRANKLIN*      CLOUDY    16   9  73 NW7       29.95R WCI   6
NEW CASTLE     LGT SNOW  16   9  73 NW12      30.00R WCI   3
BEAVER COUNTY  LGT SNOW  18  10  73 N6        29.95  WCI   9
BUTLER*        MOSUNNY   21  12  68 NW6       29.94S WCI  14
PITTSBURGH INT FLURRIES  21  12  68 N12       29.94R WCI   9
PITTSBURGH     LGT SNOW  25  11  55 NW7       29.91R
INDIANA*       PTSUNNY   27  19  74 N3        29.91F HAZE
LATROBE        LGT SNOW  28  19  69 CALM      29.90S
WASHINGTON CO* PTSUNNY   21  12  68 NW7       29.95R WCI  13
$$

PAZ004>006-010>012-017>019-024>028-033>037-041-042-045-046-049>053-261900-
CENTRAL PENNSYLVANIA

CITY           SKY/WX    TMP DP  RH WIND       PRES   REMARKS
BRADFORD       LGT SNOW  16   8  71 N5        29.87S WCI   9
DUBOIS         CLOUDY    21  11  65 N7        29.86F HAZE    WCI  12
CLEARFIELD     CLOUDY    23   9  55 CALM      29.88F
JOHNSTOWN      LGT SNOW  25  17  72 W6        29.80S
ALTOONA        CLOUDY    23  11  60 N6        29.88S
STATE COLLEGE  CLOUDY    21  10  63 N7        29.91F WCI  13
WILLIAMSPORT   PTSUNNY   23   5  46 CALM      29.96F
SELINSGROVE    PTSUNNY   23  13  65 N7        29.97F WCI  15
FT INDIANTOWN  MOSUNNY   28  15  59 VRB6      29.92F
CAPITAL CITY   MOSUNNY   28  17  63 E8        29.94F
HARRISBURG     MOSUNNY   27  16  63 NE7       29.94F
YORK           SUNNY     28  15  58 N9        29.92F
$$

PAZ038>040-043-044-047-048-054-055-060>062-067>071-261900-
EASTERN PENNSYLVANIA

CITY           SKY/WX    TMP DP  RH WIND       PRES   REMARKS
SCRANTON       LGT SNOW  23  12  62 N6        29.91F
MOUNT POCONO   CLOUDY    22   9  57 N5        29.82F
ALLENTOWN      PTSUNNY   24  14  65 NE9       29.94F WCI  14
QUAKERTOWN*    CLOUDY    25  16  68 N7        29.92F
READING        PTSUNNY   23  16  74 NE7       29.92F WCI  15
LANCASTER      MOSUNNY   25  17  72 NE8       29.91F
COATESVILLE    PTCLDY    27  19  74 N10       29.89F
POTTSTOWN      CLOUDY    25  16  68 N9        29.93F
BLUE BELL      MOSUNNY   30  18  59 N3        29.90F
DOYLESTOWN     CLOUDY    27  16  63 NE10      29.90F
WILLOW GROVE   NOT AVBL
NORTH PHILA    SUNNY     30  10  43 NE16      29.93F
PHILADELPHIA   PTSUNNY   31  14  49 NE16G25   29.91F
$$


USA.gov is the U.S. government's official web portal to all federal, state and local government web resources and services.